Regional Weather Roundup
Issued by NWS Jackson, KY

Home | Current Version | Previous Version | Text Only | Print | Product List | Glossary Off
Versions: 1 2 3 4 5 6 7 8 9 10 11 12 13 14 15 16 17 18 19 20 21 22 23 24 25 26 27 28 29 30 31 32 33 34 35 36 37 38 39 40 41 42 43 44 45 46 47 48 49 50

400
ASUS43 KJKL 081510
RWRJKL

EAST KENTUCKY HOURLY WEATHER ROUNDUP
NATIONAL WEATHER SERVICE JACKSON KY
1000 AM EST MON FEB 08 2016

NOTE: "FAIR" INDICATES FEW OR NO CLOUDS BELOW 12,000 FEET WITH
NO SIGNIFICANT WEATHER AND/OR OBSTRUCTIONS TO VISIBILITY.

* THESE REPORTS ARE NOT UNDER NWS QUALITY CONTROL AND MAY NOT
  REPORT WEATHER SUCH AS PRECIPITATION AND FOG.

KYZ079-080-083-085-087-088-110-112-115-119-120-081600
...EASTERN KENTUCKY...

CITY           SKY/WX    TMP DP  RH WIND       PRES   REMARKS
JACKSON        CLOUDY    36  34  92 VRB3      29.68F
LONDON         PTSUNNY   39  34  82 SW7       29.71F WCI  34
SOMERSET*      CLOUDY    37  37 100 S5        29.72F WCI  34
MONTICELLO*    CLOUDY    39  38  96 NE7       29.73F WCI  34
WILLIAMSBURG*  MOSUNNY   41  36  81 SW6       29.72F
MIDDLESBORO*   PTSUNNY   42  33  68 N3        29.74F
HARLAN APT*      N/A     39  32  75 CALM      29.72S
HAZARD APT*    CLOUDY   N/A N/A N/A SW9       29.70S
BLACK MTN*       N/A     28  27  93 SW3         N/A
BIG SANDY*     CLOUDY    37  35  90 SW7       29.68S WCI  32
MOREHEAD APT*  CLOUDY    36  34  93 SW12      29.70R WCI  27
$$

KYZ035-036-041-042-044-050-067-078-099-081600
...CENTRAL KENTUCKY...

CITY           SKY/WX    TMP DP  RH WIND       PRES   REMARKS
MT STERLING*   CLOUDY    36  34  93 W9        29.70S WCI  29
DANVILLE*      LGT RAIN  36  34  93 SW8       29.71S WCI  29
RICHMOND*      PTSUNNY   37  34  87 SW9       29.69F WCI  31
LEXINGTON      CLOUDY    35  33  92 W10       29.70R WCI  27
FRANKFORT      MIX PCPN  36  33  89 SW8       29.69R WCI  30
$$

KYZ091>093-OHZ055-061-077-WVZ005-015-034-035-042-081600
...SOUTHERN OHIO/WEST VIRGINIA...

CITY           SKY/WX    TMP DP  RH WIND       PRES   REMARKS
COVINGTON      CLOUDY    37  34  87 W12       29.66R WCI  30
COLUMBUS       LGT SNOW  34  34 100 W3        29.63R FOG
DAYTON         PTSUNNY   36  33  89 W7        29.63F WCI  30
WILMINGTON     CLOUDY    36  34  92 SW10      29.62F WCI  28
HUNTINGTON     CLOUDY    38  34  85 SW7       29.66F WCI  33
CHARLESTON     CLOUDY    40  26  57 W7        29.66S
PINEVILLE*     CLOUDY    33  27  80 MISG      29.72F
BECKLEY        CLOUDY    37  20  50 SE7       29.65F WCI  32
$$

VAZ002-007-008-TNZ017-027-036-066-071-081600
...SOUTHWEST VIRGINIA/EAST TENNESSEE...

CITY           SKY/WX    TMP DP  RH WIND       PRES   REMARKS
BRISTOL        CLOUDY    34  28  79 CALM      29.73S
KNOXVILLE      CLOUDY    43  29  57 SW10      29.75F
OAK RIDGE      MOSUNNY   44  28  53 VRB3      29.76F
CROSSVILLE     PTSUNNY   42  27  55 SW12G21   29.72F
NASHVILLE      PTSUNNY   44  24  45 W12G21    29.80R
$$

...KEY TO REMARKS...
VSB - VISIBILITY IN MILES
WCI - WIND CHILL INDEX
HX  - HEAT INDEX

$$




USA.gov is the U.S. government's official web portal to all federal, state and local government web resources and services.